Regional Weather Roundup
Issued by NWS

Home | Current Version | Previous Version | Graphics & Text | Print | Product List | Glossary On
Versions: 1 2 3 4 5 6 7 8 9 10 11 12 13 14 15 16 17 18 19 20 21 22 23 24 25 26 27 28 29 30 31 32 33 34 35 36 37 38 39 40 41 42 43 44 45 46 47 48 49 50
000
ASUS43 KFSD 210710
RWRSD

WEATHER ROUNDUP FOR SOUTH DAKOTA
NATIONAL WEATHER SERVICE SIOUX FALLS SD
100 AM CST TUE NOV 21 2017

NOTE: "FAIR" INDICATES FEW OR NO CLOUDS BELOW 12,000 FEET WITH NO
SIGNIFICANT WEATHER AND/OR OBSTRUCTIONS TO VISIBILITY.


SDZ001>005-009-010-012>017-210800-
NORTHWEST AND NORTH CENTRAL SOUTH DAKOTA

CITY           SKY/WX    TMP DP  RH WIND       PRES   REMARKS
BUFFALO          N/A     29  21  72 NW29G37   29.89R WCI  14
FAITH            N/A     31  23  72 NW20G33   29.90R WCI  19
MOBRIDGE       CLOUDY    29  10  45 N30G41    29.86R WCI  13
$$

SDZ012>016-024>037-041>051-057-063-072>074-210800-
SOUTHWEST AND SOUTH CENTRAL SOUTH DAKOTA

CITY           SKY/WX    TMP DP  RH WIND       PRES   REMARKS
RAPID CTY ARPT LGT SNOW  31  28  89 N26       29.91R FOG     WCI  17
PIERRE         FLURRIES  37  24  59 NW18      29.86R
CUSTER         CLOUDY    35  21  56 W5        29.85R
ELLSWORTH AFB  FLURRIES  30  30 100 N16       29.94  WCI  19
PHILIP         LGT SNOW  32  30  92 N14       29.94R FOG     WCI  22
PINE RIDGE     CLOUDY    41  25  53 NE15G22   29.85R
SPEARFISH      LGT SNOW  28  28 100 N13       29.97R VSB 1   WCI  18
WINNER         PTSUNNY   42  25  50 N13       29.86R
$$

SDZ004>011-016>023-039-040-210800-
NORTHEAST SOUTH DAKOTA

CITY           SKY/WX    TMP DP  RH WIND       PRES   REMARKS
ABERDEEN       MOCLDY    30   9  41 NW28G43   29.82R WCI  15
WATERTOWN      CLOUDY    32  20  61 NW10      29.73R WCI  24
BROOKINGS      CLOUDY    34  18  52 NW14      29.74  WCI  25
SISSETON         N/A     28  15  58 NW24G36   29.73R WCI  14
$$

SDZ017-020-022-023-036>040-048>070-210800-
SOUTHEAST SOUTH DAKOTA

CITY           SKY/WX    TMP DP  RH WIND       PRES   REMARKS
SIOUX FALLS    CLOUDY    40  20  44 NW13      29.78R
HURON          CLOUDY    39  22  50 NW15G23   29.82R
CHAMBERLAIN    CLOUDY    42  22  45 N10G21    29.86R
MITCHELL       CLOUDY    40  24  53 NW13      29.84R
YANKTON        CLOUDY    40  20  44 N23       29.79R
$$

ABBREVIATIONS USED IN REMARKS
   TC - TEMPERATURE IN CELSIUS
  WCI - WIND CHILL INDEX
   HX - HEAT INDEX
  VSB - VISIBILITY





USA.gov is the U.S. government's official web portal to all federal, state and local government web resources and services.